Time,TemperatureF,DewpointF,PressureIn,WindDirection,WindDirectionDegrees,WindSpeedMPH,WindSpeedGustMPH,Humidity,HourlyPrecipIn,Conditions,Clouds,dailyrainin,SoftwareType,DateUTC
2013-06-30 00:02:00,63.0,59.0,29.75,NE,46,0.0,-999.0,86,-99.99,,,-99.99,,2013-06-30 05:02:00,
2013-06-30 00:12:00,62.0,58.0,29.75,North,355,0.0,-999.0,86,-99.99,,,-99.99,,2013-06-30 05:12:00,
2013-06-30 00:22:00,62.0,58.0,29.75,North,355,0.0,-999.0,86,-99.99,,,-99.99,,2013-06-30 05:22:00,
2013-06-30 00:33:00,63.0,58.0,29.75,NNW,343,0.0,-999.0,83,-99.99,,,-99.99,,2013-06-30 05:33:00,
2013-06-30 00:43:00,63.0,57.0,29.76,NNW,338,0.0,-999.0,82,-99.99,,,-99.99,,2013-06-30 05:43:00,
2013-06-30 00:53:00,63.0,57.0,29.76,NNW,338,0.0,-999.0,82,-99.99,,,-99.99,,2013-06-30 05:53:00,
2013-06-30 01:02:00,63.0,58.0,29.76,NNW,340,1.0,-999.0,83,-99.99,,,-99.99,,2013-06-30 06:02:00,
2013-06-30 01:12:00,63.0,58.0,29.76,NNW,340,1.0,-999.0,83,-99.99,,,-99.99,,2013-06-30 06:12:00,
2013-06-30 01:23:00,63.0,58.0,29.76,NNW,340,1.0,-999.0,83,-99.99,,,-99.99,,2013-06-30 06:23:00,
2013-06-30 01:34:00,63.0,58.0,29.76,NNW,340,1.0,-999.0,83,-99.99,,,-99.99,,2013-06-30 06:34:00,
2013-06-30 05:34:00,61.0,57.0,29.79,NNW,346,1.0,-999.0,88,-99.99,,,-99.99,,2013-06-30 10:34:00,
2013-06-30 05:43:00,61.0,57.0,29.80,NW,325,1.0,-999.0,87,-99.99,,,-99.99,,2013-06-30 10:43:00,
2013-06-30 05:53:00,61.0,57.0,29.80,NW,325,1.0,-999.0,87,-99.99,,,-99.99,,2013-06-30 10:53:00,
2013-06-30 06:02:00,62.0,58.0,29.80,NNW,343,1.0,-999.0,86,-99.99,,,-99.99,,2013-06-30 11:02:00,
2013-06-30 06:11:00,62.0,58.0,29.80,North,350,1.0,-999.0,86,-99.99,,,-99.99,,2013-06-30 11:11:00,
2013-06-30 06:22:00,62.0,58.0,29.80,North,350,1.0,-999.0,86,-99.99,,,-99.99,,2013-06-30 11:22:00,
2013-06-30 06:33:00,62.0,58.0,29.81,NNW,346,1.0,-999.0,86,-99.99,,,-99.99,,2013-06-30 11:33:00,
2013-06-30 06:43:00,62.0,58.0,29.82,NE,53,1.0,-999.0,86,-99.99,,,-99.99,,2013-06-30 11:43:00,
2013-06-30 06:53:00,62.0,58.0,29.82,NE,53,1.0,-999.0,86,-99.99,,,-99.99,,2013-06-30 11:53:00,
2013-06-30 07:02:00,62.0,57.0,29.82,NNW,346,2.0,-999.0,85,-99.99,,,-99.99,,2013-06-30 12:02:00,
2013-06-30 07:24:00,62.0,57.0,29.82,North,355,1.0,-999.0,84,-99.99,,,-99.99,,2013-06-30 12:24:00,
2013-06-30 07:33:00,62.0,57.0,29.83,North,5,0.0,-999.0,84,-99.99,,,-99.99,,2013-06-30 12:33:00,
2013-06-30 07:43:00,63.0,58.0,29.83,NNW,333,1.0,-999.0,83,-99.99,,,-99.99,,2013-06-30 12:43:00,
2013-06-30 07:52:00,63.0,58.0,29.83,NNW,333,1.0,-999.0,83,-99.99,,,-99.99,,2013-06-30 12:52:00,
2013-06-30 08:02:00,63.0,58.0,29.84,NNE,15,1.0,-999.0,83,-99.99,,,-99.99,,2013-06-30 13:02:00,
2013-06-30 08:12:00,64.0,59.0,29.84,WNW,299,1.0,-999.0,83,-99.99,,,-99.99,,2013-06-30 13:12:00,
2013-06-30 08:22:00,64.0,59.0,29.84,WNW,299,1.0,-999.0,83,-99.99,,,-99.99,,2013-06-30 13:22:00,
2013-06-30 08:34:00,66.0,60.0,29.85,NE,51,1.0,-999.0,80,-99.99,,,-99.99,,2013-06-30 13:34:00,
2013-06-30 08:43:00,66.0,59.0,29.85,NNW,331,1.0,-999.0,79,-99.99,,,-99.99,,2013-06-30 13:43:00,
2013-06-30 08:53:00,66.0,59.0,29.85,NNW,331,1.0,-999.0,79,-99.99,,,-99.99,,2013-06-30 13:53:00,
2013-06-30 09:02:00,66.0,59.0,29.85,NNW,344,2.0,-999.0,77,-99.99,,,-99.99,,2013-06-30 14:02:00,
2013-06-30 09:11:00,64.0,58.0,29.86,NE,53,2.0,-999.0,80,-99.99,,,-99.99,,2013-06-30 14:11:00,
2013-06-30 09:22:00,64.0,58.0,29.86,NE,53,2.0,-999.0,80,-99.99,,,-99.99,,2013-06-30 14:22:00,
2013-06-30 09:33:00,64.0,58.0,29.86,NNW,333,1.0,-999.0,81,-99.99,,,-99.99,,2013-06-30 14:33:00,
2013-06-30 09:44:00,65.0,59.0,29.86,NE,39,1.0,-999.0,81,-99.99,,,-99.99,,2013-06-30 14:44:00,
2013-06-30 09:52:00,65.0,59.0,29.86,NE,39,1.0,-999.0,81,-99.99,,,-99.99,,2013-06-30 14:52:00,
2013-06-30 10:02:00,66.0,59.0,29.86,NNW,330,1.0,-999.0,79,-99.99,,,-99.99,,2013-06-30 15:02:00,
2013-06-30 10:23:00,67.0,60.0,29.86,NNW,347,2.0,-999.0,79,-99.99,,,-99.99,,2013-06-30 15:23:00,
2013-06-30 10:34:00,68.0,61.0,29.86,NNW,333,1.0,-999.0,79,-99.99,,,-99.99,,2013-06-30 15:34:00,
2013-06-30 10:44:00,69.0,61.0,29.87,NNE,24,1.0,-999.0,76,-99.99,,,-99.99,,2013-06-30 15:44:00,
2013-06-30 10:53:00,69.0,61.0,29.87,NNE,24,1.0,-999.0,76,-99.99,,,-99.99,,2013-06-30 15:53:00,
2013-06-30 11:01:00,70.0,61.0,29.87,NE,47,1.0,-999.0,74,-99.99,,,-99.99,,2013-06-30 16:01:00,
2013-06-30 11:11:00,71.0,61.0,29.87,NNW,331,2.0,-999.0,71,-99.99,,,-99.99,,2013-06-30 16:11:00,
2013-06-30 11:21:00,71.0,61.0,29.87,NNW,331,2.0,-999.0,71,-99.99,,,-99.99,,2013-06-30 16:21:00,
2013-06-30 11:34:00,72.0,62.0,29.87,North,350,2.0,-999.0,71,-99.99,,,-99.99,,2013-06-30 16:34:00,
2013-06-30 11:53:00,73.0,63.0,29.87,NNE,15,3.0,-999.0,70,-99.99,,,-99.99,,2013-06-30 16:53:00,
2013-06-30 12:02:00,74.0,64.0,29.87,ENE,57,1.0,-999.0,72,-99.99,,,-99.99,,2013-06-30 17:02:00,
2013-06-30 12:23:00,75.0,63.0,29.87,NNW,344,2.0,-999.0,66,-99.99,,,-99.99,,2013-06-30 17:23:00,
2013-06-30 12:34:00,75.0,63.0,29.88,NE,51,1.0,-999.0,66,-99.99,,,-99.99,,2013-06-30 17:34:00,
2013-06-30 12:43:00,74.0,63.0,29.88,NNW,337,1.0,-999.0,69,-99.99,,,-99.99,,2013-06-30 17:43:00,
2013-06-30 12:52:00,74.0,63.0,29.88,NNW,337,1.0,-999.0,69,-99.99,,,-99.99,,2013-06-30 17:52:00,
2013-06-30 13:02:00,75.0,63.0,29.88,North,351,1.0,-999.0,66,-99.99,,,-99.99,,2013-06-30 18:02:00,
2013-06-30 13:12:00,75.0,63.0,29.88,NE,47,2.0,-999.0,66,-99.99,,,-99.99,,2013-06-30 18:12:00,
2013-06-30 13:22:00,75.0,63.0,29.88,NE,47,2.0,-999.0,66,-99.99,,,-99.99,,2013-06-30 18:22:00,
2013-06-30 13:34:00,76.0,64.0,29.88,North,350,1.0,-999.0,67,-99.99,,,-99.99,,2013-06-30 18:34:00,
2013-06-30 13:43:00,76.0,63.0,29.88,WNW,298,2.0,-999.0,65,-99.99,,,-99.99,,2013-06-30 18:43:00,
2013-06-30 13:53:00,76.0,63.0,29.88,WNW,298,2.0,-999.0,65,-99.99,,,-99.99,,2013-06-30 18:53:00,
2013-06-30 14:01:00,76.0,64.0,29.87,North,9,1.0,-999.0,67,-99.99,,,-99.99,,2013-06-30 19:01:00,
2013-06-30 14:11:00,77.0,64.0,29.87,ENE,67,1.0,-999.0,64,-99.99,,,-99.99,,2013-06-30 19:11:00,
2013-06-30 14:22:00,77.0,64.0,29.87,ENE,67,1.0,-999.0,64,-99.99,,,-99.99,,2013-06-30 19:22:00,
2013-06-30 14:33:00,77.0,63.0,29.87,NNE,28,1.0,-999.0,61,-99.99,,,-99.99,,2013-06-30 19:33:00,
2013-06-30 14:43:00,77.0,63.0,29.87,North,5,1.0,-999.0,63,-99.99,,,-99.99,,2013-06-30 19:43:00,
2013-06-30 14:53:00,77.0,63.0,29.87,North,5,1.0,-999.0,63,-99.99,,,-99.99,,2013-06-30 19:53:00,
2013-06-30 15:02:00,76.0,62.0,29.87,ENE,67,2.0,-999.0,62,-99.99,,,-99.99,,2013-06-30 20:02:00,
2013-06-30 15:11:00,77.0,63.0,29.87,WNW,297,1.0,-999.0,63,-99.99,,,-99.99,,2013-06-30 20:11:00,
2013-06-30 15:22:00,77.0,63.0,29.87,WNW,297,1.0,-999.0,63,-99.99,,,-99.99,,2013-06-30 20:22:00,
2013-06-30 15:34:00,77.0,62.0,29.87,North,5,2.0,-999.0,60,-99.99,,,-99.99,,2013-06-30 20:34:00,
2013-06-30 15:42:00,76.0,62.0,29.87,North,355,2.0,-999.0,63,-99.99,,,-99.99,,2013-06-30 20:42:00,
2013-06-30 15:52:00,76.0,62.0,29.87,North,355,2.0,-999.0,63,-99.99,,,-99.99,,2013-06-30 20:52:00,
2013-06-30 16:01:00,76.0,62.0,29.87,NNE,19,2.0,-999.0,63,-99.99,,,-99.99,,2013-06-30 21:01:00,
2013-06-30 16:11:00,77.0,63.0,29.87,North,360,2.0,-999.0,63,-99.99,,,-99.99,,2013-06-30 21:11:00,
2013-06-30 16:22:00,77.0,63.0,29.87,North,360,2.0,-999.0,63,-99.99,,,-99.99,,2013-06-30 21:22:00,
2013-06-30 16:34:00,77.0,63.0,29.87,North,9,3.0,-999.0,62,-99.99,,,-99.99,,2013-06-30 21:34:00,
2013-06-30 16:53:00,78.0,62.0,29.87,NNW,346,2.0,-999.0,58,-99.99,,,-99.99,,2013-06-30 21:53:00,
2013-06-30 17:01:00,77.0,62.0,29.87,NE,51,2.0,-999.0,59,-99.99,,,-99.99,,2013-06-30 22:01:00,
2013-06-30 17:11:00,77.0,60.0,29.87,ENE,61,3.0,-999.0,56,-99.99,,,-99.99,,2013-06-30 22:11:00,
2013-06-30 17:22:00,77.0,60.0,29.87,ENE,61,3.0,-999.0,56,-99.99,,,-99.99,,2013-06-30 22:22:00,
2013-06-30 17:34:00,77.0,59.0,29.88,WNW,290,2.0,-999.0,53,-99.99,,,-99.99,,2013-06-30 22:34:00,
2013-06-30 17:43:00,77.0,57.0,29.88,NNW,329,3.0,-999.0,51,-99.99,,,-99.99,,2013-06-30 22:43:00,
2013-06-30 17:53:00,77.0,57.0,29.88,NNW,329,3.0,-999.0,51,-99.99,,,-99.99,,2013-06-30 22:53:00,
2013-06-30 18:02:00,77.0,58.0,29.89,North,360,2.0,-999.0,52,-99.99,,,-99.99,,2013-06-30 23:02:00,
2013-06-30 18:22:00,77.0,57.0,29.89,ENE,77,2.0,-999.0,51,-99.99,,,-99.99,,2013-06-30 23:22:00,
2013-06-30 18:33:00,77.0,57.0,29.89,East,94,2.0,-999.0,51,-99.99,,,-99.99,,2013-06-30 23:33:00,
2013-06-30 18:44:00,77.0,59.0,29.90,East,84,1.0,-999.0,53,-99.99,,,-99.99,,2013-06-30 23:44:00,
2013-06-30 18:53:00,77.0,59.0,29.90,East,84,1.0,-999.0,53,-99.99,,,-99.99,,2013-06-30 23:53:00,
2013-06-30 19:01:00,76.0,56.0,29.90,NNW,338,1.0,-999.0,50,-99.99,,,-99.99,,2013-07-01 00:01:00,
2013-06-30 19:11:00,76.0,58.0,29.90,NE,50,1.0,-999.0,53,-99.99,,,-99.99,,2013-07-01 00:11:00,
2013-06-30 19:22:00,76.0,58.0,29.90,NE,50,1.0,-999.0,53,-99.99,,,-99.99,,2013-07-01 00:22:00,
2013-06-30 19:33:00,75.0,57.0,29.91,ENE,58,1.0,-999.0,53,-99.99,,,-99.99,,2013-07-01 00:33:00,
2013-06-30 19:42:00,75.0,57.0,29.91,North,11,0.0,-999.0,54,-99.99,,,-99.99,,2013-07-01 00:42:00,
2013-06-30 19:52:00,75.0,57.0,29.91,North,11,0.0,-999.0,54,-99.99,,,-99.99,,2013-07-01 00:52:00,
2013-06-30 20:01:00,74.0,58.0,29.91,NE,49,0.0,-999.0,58,-99.99,,,-99.99,,2013-07-01 01:01:00,
2013-06-30 20:11:00,74.0,58.0,29.91,NE,49,0.0,-999.0,58,-99.99,,,-99.99,,2013-07-01 01:11:00,
2013-06-30 20:22:00,74.0,58.0,29.91,NE,49,0.0,-999.0,58,-99.99,,,-99.99,,2013-07-01 01:22:00,
2013-06-30 20:33:00,73.0,58.0,29.91,NNE,19,0.0,-999.0,59,-99.99,,,-99.99,,2013-07-01 01:33:00,
2013-06-30 20:42:00,71.0,57.0,29.92,NNE,15,0.0,-999.0,61,-99.99,,,-99.99,,2013-07-01 01:42:00,
2013-06-30 20:52:00,71.0,57.0,29.92,NNE,15,0.0,-999.0,61,-99.99,,,-99.99,,2013-07-01 01:52:00,
2013-06-30 21:02:00,70.0,55.0,29.92,NE,55,0.0,-999.0,59,-99.99,,,-99.99,,2013-07-01 02:02:00,
2013-06-30 21:11:00,69.0,54.0,29.93,NE,56,0.0,-999.0,58,-99.99,,,-99.99,,2013-07-01 02:11:00,
2013-06-30 21:22:00,69.0,54.0,29.93,NE,56,0.0,-999.0,58,-99.99,,,-99.99,,2013-07-01 02:22:00,
2013-06-30 21:33:00,68.0,54.0,29.93,ENE,69,0.0,-999.0,60,-99.99,,,-99.99,,2013-07-01 02:33:00,
2013-06-30 21:44:00,68.0,54.0,29.94,ENE,69,0.0,-999.0,61,-99.99,,,-99.99,,2013-07-01 02:44:00,
2013-06-30 21:53:00,68.0,54.0,29.94,ENE,69,0.0,-999.0,61,-99.99,,,-99.99,,2013-07-01 02:53:00,
2013-06-30 22:01:00,67.0,54.0,29.95,NNE,26,0.0,-999.0,63,-99.99,,,-99.99,,2013-07-01 03:01:00,
2013-06-30 22:11:00,67.0,54.0,29.95,NNE,26,0.0,-999.0,63,-99.99,,,-99.99,,2013-07-01 03:11:00,
2013-06-30 22:23:00,66.0,53.0,29.96,NNW,340,0.0,-999.0,63,-99.99,,,-99.99,,2013-07-01 03:23:00,
2013-06-30 22:33:00,66.0,52.0,29.96,North,11,0.0,-999.0,61,-99.99,,,-99.99,,2013-07-01 03:33:00,
2013-06-30 22:43:00,65.0,51.0,29.96,NNW,342,1.0,-999.0,60,-99.99,,,-99.99,,2013-07-01 03:43:00,
2013-06-30 22:52:00,65.0,51.0,29.96,NNW,342,1.0,-999.0,60,-99.99,,,-99.99,,2013-07-01 03:52:00,
2013-06-30 23:01:00,65.0,49.0,29.96,East,85,1.0,-999.0,57,-99.99,,,-99.99,,2013-07-01 04:01:00,
2013-06-30 23:11:00,65.0,48.0,29.96,NNW,338,1.0,-999.0,54,-99.99,,,-99.99,,2013-07-01 04:11:00,
2013-06-30 23:22:00,65.0,48.0,29.96,NNW,338,1.0,-999.0,54,-99.99,,,-99.99,,2013-07-01 04:22:00,
2013-06-30 23:32:00,65.0,48.0,29.96,NNW,338,1.0,-999.0,54,-99.99,,,-99.99,,2013-07-01 04:32:00,
2013-06-30 23:43:00,65.0,48.0,29.96,NNW,338,1.0,-999.0,54,-99.99,,,-99.99,,2013-07-01 04:43:00,
2013-06-30 23:53:00,64.0,48.0,29.96,NNW,328,0.0,-999.0,57,-99.99,,,-99.99,,2013-07-01 04:53:00,